Flag for Norway Weather past 2 weeks in Melhus, Norway

Now
55 °F

Rain. Partly cloudy.


Feels Like: 52 °F
Forecast: 47 / 62 °F
Wind: 12 mph from Southwest

Location: Trondheim / Vaernes

Current Time: Aug 20, 2014 at 11:25:13 PM

Latest Report: Aug 20, 2014 at 10:50 PM


Visibility: 4 mi

Pressure: 29.50 "Hg

Humidity: 88%

Dew point: 52 °F

Location of MelhusLocation

Historic Weather in Melhus — Graph

°F

Melhus temperature yesterday

Maximum temperature yesterday: 64 °F (at 1:50 PM)
Minimum temperature yesterday: 52 °F (at 2:50 AM)
Average temperature yesterday: 57 °F

Past Weeks' High & Low Weather Summary

 TemperatureHumidityPressure
High82 °F (Aug 9, 3:50 PM)100% (Aug 6, 3:50 AM)30.04 "Hg (Aug 6, 3:50 AM)
Low46 °F (Aug 16, 5:50 AM)32% (Aug 9, 4:50 PM)29.15 "Hg (Aug 18, 7:50 PM)
Average61 °F73%29.59 "Hg
* Reported Aug 5 10:20 PM — Aug 20 10:20 PM, Melhus, Weather by CustomWeather, © 2014

Note: Actual official high and low records may vary slightly from our data, if they occured in-between our weather recording intervals... More about our weather records

Advertising

Melhus weather history for previous 24 hours

 ConditionsComfort  
Time TempWeatherWind HumidityBarometerVisibility
10:20 PM
Aug 20
55 °FRain. Partly cloudy.16 mph94%29.50 "Hg3 mi
9:50 PM55 °FRain. Broken clouds.18 mph94%29.50 "Hg4 mi
9:20 PM57 °FSleet. Partly sunny.16 mph88%29.47 "HgN/A
8:50 PM57 °FLight rain. Partly sunny.16 mph82%29.47 "HgN/A
8:20 PM57 °FSprinkles. Broken clouds.18 mph82%29.47 "HgN/A
7:50 PM59 °FSprinkles. Broken clouds.18 mph77%29.47 "HgN/A
7:20 PM59 °FScattered showers. Broken clouds.17 mph77%29.47 "HgN/A
6:50 PM59 °FPartly sunny.17 mph77%29.47 "HgN/A
6:20 PM59 °FBroken clouds.17 mph77%29.47 "HgN/A
5:50 PM61 °FBroken clouds.15 mph72%29.47 "HgN/A
5:20 PM59 °FBroken clouds.15 mph82%29.47 "HgN/A
4:50 PM59 °FLight rain. Broken clouds.16 mph77%29.47 "HgN/A
4:20 PM61 °FScattered showers. Broken clouds.13 mph72%29.45 "HgN/A
3:50 PM59 °FBroken clouds.12 mph77%29.47 "HgN/A
3:20 PM59 °FScattered showers. Scattered clouds.13 mph82%29.45 "HgN/A
2:50 PM59 °FScattered showers. Scattered clouds.14 mph77%29.45 "HgN/A
2:20 PM63 °FScattered showers. Scattered clouds.15 mph73%29.45 "HgN/A
1:50 PM59 °FBroken clouds.15 mph77%29.45 "HgN/A
1:20 PM59 °FBroken clouds.15 mph77%29.45 "HgN/A
12:50 PM59 °FPartly sunny.15 mph77%29.45 "HgN/A
12:20 PM59 °FPartly sunny.16 mph77%29.45 "HgN/A
11:50 AM59 °FPartly sunny.15 mph82%29.45 "HgN/A
11:20 AM59 °FPartly sunny.14 mph82%29.45 "HgN/A
10:50 AM57 °FPartly sunny.14 mph82%29.45 "HgN/A
10:20 AM57 °FPartly sunny.14 mph82%29.45 "HgN/A
9:50 AM57 °FScattered showers. Partly sunny.12 mph88%29.45 "HgN/A
9:20 AM55 °FScattered clouds.7 mph88%29.42 "HgN/A
8:50 AM55 °FPartly sunny.9 mph88%29.42 "HgN/A
8:20 AM55 °FBroken clouds.7 mph88%29.42 "HgN/A
7:50 AM55 °FMore clouds than sun.2 mph88%29.42 "HgN/A
7:20 AM54 °FMore clouds than sun.1 mph94%29.42 "HgN/A
6:50 AM54 °FMostly cloudy.1 mph94%29.42 "HgN/A
6:20 AM54 °FPartly cloudy.1 mph94%29.42 "HgN/A
5:50 AM54 °FScattered showers. Passing clouds.2 mph94%29.42 "HgN/A
4:50 AM54 °FScattered showers. Partly cloudy.3 mph94%29.42 "HgN/A
3:50 AM52 °FPartly cloudy.1 mph94%29.42 "HgN/A
2:50 AM52 °FPassing clouds.2 mph94%29.42 "HgN/A
1:50 AM52 °FPassing clouds.5 mph94%29.39 "HgN/A
1:20 AM52 °FPassing clouds.3 mph100%29.39 "HgN/A
12:50 AM54 °FPassing clouds.2 mph94%29.39 "HgN/A
11:50 PM
Aug 19
54 °FPartly cloudy.7 mph94%29.39 "HgN/A
11:20 PM55 °FPassing clouds.3 mph88%29.39 "HgN/A
Weather by CustomWeather, © 2014

See weather overviewHow to use our weather pages